SCP
0 0 0 0 0 0 0 0 0 0 0 0 0 0 0 0 0 0 0 0 0 0 0 0 0 0 0 0 0 0 0 0 0 0 0 0 0 0 0 0 0 0 0 0
0 0 0 0 0 0 0 0 0 0 0 0 0 0 0 0 0 0 0 0 0 0 0 0 0 0 0 0 0 0 0 0 0 0 0 0 0 0 0 0 0 0 0 0
0 0 0 0 0 0 0 0 0 0 0 0 0 1 0 0 0 0 0 0 0 0 1 1 1 1 0 0 0 0 0 0 0 0 0 0 0 0 0 0 0 0 0 0
0 0 0 0 0 0 0 0 0 0 0 0 0 0 0 0 0 0 0 1 1 1 1 1 1 0 0 0 0 0 0 0 0 0 0 0 0 0 0 0 0 0 0 0
0 0 0 0 0 0 0 0 0 0 0 0 0 0 0 0 0 0 1 1 1 1 1 1 0 0 0 0 0 0 0 0 0 0 0 0 0 0 0 0 0 0 0 0
0 0 0 0 0 0 0 0 0 0 0 0 0 0 0 0 0 1 1 1 0 0 0 0 0 0 0 0 0 0 0 0 0 0 0 0 0 0 0 0 0 0 0 0
0 0 0 0 0 0 0 0 0 0 0 0 0 0 0 0 0 1 0 0 0 0 0 0 0 0 0 0 0 0 0 0 0 0 0 0 0 0 0 0 0 0 0 0
0 0 0 0 0 0 0 0 0 0 0 0 0 0 0 0 0 0 0 0 0 0 0 0 0 0 0 0 0 0 0 0 0 0 0 0 0 0 0 0 0 0 0 0
0 0 0 0 0 0 0 0 0 0 0 0 0 0 0 0 0 0 0 0 0 0 0 0 0 0 0 0 0 0 0 0 0 0 0 0 0 0 0 0 0 0 0 0
0 0 0 0 0 0 0 0 0 0 0 0 0 0 0 0 0 0 0 0 0 0 0 0 0 0 0 0 0 0 0 0 0 0 0 0 0 0 0 0 0 0 0 0
0 0 0 0 0 0 0 0 0 0 0 0 0 0 0 0 0 0 0 0 0 0 0 0 0 0 0 0 0 0 0 0 0 0 0 0 0 0 0 0 0 0 0 0
0 0 0 0 0 0 0 0 0 0 0 0 0 0 0 0 0 0 0 0 0 0 0 0 0 0 0 0 0 0 0 0 0 0 0 0 0 0 0 0 0 0 0 0
0 0 0 0 0 0 0 0 0 0 0 0 0 0 0 0 0 0 0 0 0 0 0 0 0 0 0 0 0 0 0 0 0 0 0 0 0 0 0 0 0 0 0 0
0 0 0 0 0 0 0 0 0 0 0 0 0 0 0 0 0 0 0 0 0 0 0 0 0 0 0 0 0 0 0 0 0 0 0 0 0 0 0 0 0 0 0 0
0 0 0 0 0 0 0 0 0 0 0 0 0 0 0 0 0 0 0 0 0 0 0 0 0 0 0 0 0 0 0 0 0 0 0 0 0 0 0 0 0 0 0 0
0 0 0 0 0 0 0 0 0 0 0 0 0 0 0 0 0 0 0 0 0 0 0 0 0 0 0 0 0 0 0 0 0 0 0 0 0 0 0 0 0 0 0 0
0 0 0 0 0 0 0 0 0 0 0 0 0 0 0 0 0 0 0 0 0 0 0 0 0 0 0 0 0 0 0 0 0 0 0 0 0 0 0 0 0 0 0 0
0 0 0 0 0 0 0 0 0 0 0 0 0 0 0 0 0 0 0 0 0 0 0 0 0 0 0 0 0 0 0 0 0 0 0 0 0 0 0 0 0 0 0 0
0 0 0 0 0 0 0 0 0 0 0 0 0 0 0 0 0 0 0 0 0 0 0 0 0 0 0 0 0 0 0 0 0 0 0 0 0 0 0 0 0 0 0 0
0 0 0 0 0 0 0 0 0 0 0 0 0 0 0 0 0 0 0 0 0 0 0 0 0 0 0 0 0 0 0 0 0 0 0 0 0 0 0 0 0 0 0 0
0 0 0 0 0 0 0 0 0 0 0 0 0 0 0 0 0 0 0 0 0 0 0 0 0 0 0 0 0 0 0 0 0 0 0 0 0 0 0 0 0 0 0 0
0 0 0 0 0 0 0 0 0 0 0 0 0 0 0 0 0 0 0 0 0 0 0 0 0 0 0 0 0 0 0 0 0 0 0 0 0 0 0 0 0 0 0 0
0 0 0 0 0 0 0 0 0 0 0 0 0 0 0 0 0 0 0 0 0 0 0 0 0 0 0 0 0 0 0 0 0 0 0 0 0 0 0 0 0 0 0 0
0 0 0 0 0 0 0 0 0 0 0 0 0 0 0 0 0 0 0 0 0 0 0 0 0 0 0 0 0 0 0 0 0 0 0 0 0 0 0 0 0 0 0 0
0 0 0 0 0 0 0 0 0 0 0 0 0 0 0 0 0 0 0 0 0 0 0 0 0 0 0 0 0 0 0 0 0 0 0 0 0 0 0 0 0 0 0 0
0 0 0 0 0 0 0 0 0 0 0 0 0 0 0 0 0 0 0 0 0 0 0 0 0 0 0 0 0 0 0 0 0 0 0 0 0 0 0 0 0 0 0 0
0 0 0 0 0 0 0 0 0 0 0 0 0 0 0 0 0 0 0 0 0 0 0 0 0 0 0 0 0 0 0 0 0 0 0 0 0 0 0 0 0 0 0 0
Wind_Speed
14 15 13 11 11 11 11 9 10 9 7 3 2 2 2 4 5 4 3 3 4 3 3 4 4 4 4 4 4 4 4 4 4 3 3 3 2 3 2 3 3 3 3 3
13 14 14 12 11 10 9 9 9 8 6 2 0 2 2 3 4 4 3 3 3 3 3 3 3 3 3 3 4 4 3 4 4 4 4 3 3 3 2 3 3 3 3 3
12 13 13 11 7 7 7 7 7 6 3 1 1 2 3 3 3 3 3 3 3 3 2 2 2 2 2 2 3 3 3 3 3 3 3 3 3 3 3 2 2 2 3 2
11 11 13 4 4 5 6 4 4 2 3 3 3 3 3 3 3 3 3 3 2 2 2 2 2 2 2 2 2 3 3 3 3 3 3 2 2 2 2 1 2 2 3 2
9 11 10 5 2 4 5 2 3 4 4 4 3 2 4 3 3 3 3 3 3 2 2 2 1 1 1 1 2 2 3 3 3 3 3 3 3 2 2 2 3 3 3 3
9 10 9 3 3 3 4 1 5 4 4 3 3 0 1 2 2 3 4 3 3 2 2 1 1 1 1 2 2 3 3 3 2 2 2 2 2 2 2 2 3 3 3 3
10 10 5 4 5 3 3 2 5 5 4 3 2 2 1 1 2 3 3 3 3 2 1 1 1 2 2 2 2 3 3 3 2 2 2 3 2 2 3 3 3 3 2 2
7 8 4 6 5 4 3 3 4 5 4 3 2 2 2 2 2 2 3 3 2 2 2 2 2 2 2 2 2 2 2 3 2 2 3 3 3 3 3 3 3 3 3 3
2 1 3 5 5 4 3 4 5 5 4 3 2 1 1 1 2 2 2 2 1 1 2 2 2 2 3 2 2 2 2 2 2 3 2 2 3 4 3 3 4 4 4 4
1 1 2 3 4 5 5 4 5 4 3 2 2 1 1 1 1 1 1 1 1 1 2 2 3 3 3 2 2 2 3 3 3 3 3 3 3 4 4 4 4 4 4 3
1 1 1 1 4 5 5 4 5 5 4 2 2 2 1 1 1 0 0 1 2 2 3 3 3 3 3 3 3 3 3 3 4 4 4 4 4 3 4 2 2 3 2 2
3 4 4 4 3 4 4 4 4 4 3 3 1 1 1 1 0 1 1 1 2 3 4 3 3 3 3 3 3 3 4 5 4 4 4 4 4 4 4 4 4 4 4 4
3 5 5 5 4 4 4 4 4 3 2 2 1 2 2 1 1 1 2 2 2 3 3 3 3 3 3 3 3 3 4 5 4 5 4 4 4 4 4 4 4 4 5 5
4 4 5 5 6 5 5 5 4 3 2 1 1 2 1 1 1 2 2 2 2 3 3 3 3 3 3 3 3 4 5 6 5 4 4 4 4 4 4 4 4 4 4 7
6 6 6 7 7 5 5 4 4 3 2 2 1 1 0 1 2 2 2 2 2 3 3 3 3 3 3 3 3 4 5 4 4 5 5 4 4 4 4 4 4 3 3 4
6 6 7 7 7 6 6 5 4 3 2 1 1 1 1 1 2 2 2 2 2 3 3 3 3 3 3 3 4 4 4 6 5 5 5 4 4 4 3 3 2 2 3 3
5 6 7 8 7 6 6 6 5 4 3 2 1 1 1 1 1 2 2 2 3 3 3 3 3 4 3 3 4 4 4 4 5 5 4 3 3 3 3 3 2 2 2 3
6 6 7 8 7 6 7 6 6 5 3 3 1 1 1 1 2 2 2 2 2 2 3 3 3 4 4 4 4 4 3 3 3 3 3 2 2 2 2 2 2 2 1 3
5 6 7 7 7 6 6 6 5 4 4 3 3 2 2 2 2 2 2 2 2 2 2 3 4 4 4 4 5 4 4 3 2 2 2 2 2 3 3 2 2 1 0 1
6 6 7 7 7 6 6 5 4 4 4 3 3 3 2 2 2 2 1 2 2 2 2 2 3 4 4 4 5 4 4 3 3 2 2 2 3 3 2 2 1 1 1 0
7 7 7 7 8 7 6 6 5 4 4 3 3 3 3 3 2 2 2 2 2 0 2 2 3 3 3 4 5 5 3 3 2 2 3 3 3 2 2 1 1 1 0 1
8 7 8 7 7 7 7 6 5 5 4 3 3 3 3 3 3 2 2 2 2 0 1 1 2 2 4 6 5 5 4 3 3 2 2 2 2 1 1 1 1 1 0 1
7 7 7 7 7 7 7 6 5 4 4 4 4 4 4 4 3 3 2 2 1 0 2 2 1 2 4 5 5 4 4 3 3 2 2 1 1 0 0 1 1 1 1 1
7 7 7 7 7 6 6 5 4 3 4 4 4 4 3 3 3 3 2 1 0 1 2 1 2 3 4 4 4 3 3 2 1 2 1 0 1 1 1 1 1 1 1 1
6 7 7 7 6 5 5 5 5 4 4 3 4 3 3 2 2 2 2 2 1 1 2 2 3 4 4 3 3 2 1 2 2 2 1 1 1 1 1 1 1 1 1 1
5 5 5 5 5 4 4 4 4 3 3 4 3 3 3 3 2 2 1 1 1 2 2 2 2 3 3 2 2 2 1 1 1 1 2 2 2 2 2 2 2 1 1 1
4 4 4 5 5 4 4 4 4 4 4 4 3 3 3 3 3 3 2 1 2 2 2 2 2 3 2 2 2 2 3 2 2 2 2 2 2 2 2 3 2 2 2 2
Wind_Direction
271 278 275 270 268 270 267 268 274 280 277 264 210 185 172 145 139 158 157 144 140 137 142 151 161 166 175 175 168 164 167 176 179 177 184 194 212 225 234 240 247 240 222 224
274 273 274 268 265 269 273 272 270 273 282 330 238 137 130 136 143 153 155 157 148 143 136 148 160 167 165 170 161 161 179 185 184 184 186 195 209 220 228 240 245 245 237 230
273 274 273 264 273 277 276 284 287 286 301 330 30 98 122 138 138 148 151 152 145 141 142 145 156 149 156 161 153 159 180 197 184 189 193 196 208 208 222 240 248 245 237 229
271 271 266 281 329 309 292 298 322 348 13 28 44 80 100 106 106 98 100 106 117 132 136 130 129 141 154 168 164 177 190 202 192 195 204 207 214 221 229 243 255 254 245 222
266 265 263 261 313 312 293 300 15 19 8 29 49 77 92 87 87 94 101 103 112 120 128 133 146 148 154 175 178 196 207 207 204 201 209 214 218 221 223 245 246 241 237 211
259 265 269 304 337 307 271 228 36 20 6 14 30 326 40 69 76 84 96 103 115 132 141 147 145 153 188 197 205 220 220 216 212 208 213 226 226 225 230 248 250 244 228 210
259 262 266 348 342 301 262 19 2 360 359 11 34 7 9 79 80 84 102 115 123 140 156 169 168 175 208 220 234 237 224 220 214 208 211 221 225 226 234 248 251 242 226 215
252 256 261 357 354 15 37 9 345 352 356 21 61 59 60 89 92 93 111 121 145 176 177 171 176 190 215 232 245 248 238 227 216 208 229 230 220 232 236 248 245 229 222 226
300 307 13 22 31 28 34 15 355 350 357 30 65 52 39 83 111 123 127 137 170 211 191 182 187 206 219 228 237 243 246 240 236 228 226 226 229 229 228 230 242 232 222 219
259 102 28 24 23 23 14 5 352 343 352 25 44 59 55 54 111 144 163 173 208 239 229 221 212 218 223 227 234 234 242 244 243 236 232 228 235 232 233 228 237 241 229 223
272 5 1 39 12 4 359 353 348 350 346 23 51 72 80 84 96 154 202 213 225 235 241 239 228 222 219 216 222 239 244 243 245 241 236 233 234 244 243 244 233 250 259 241
322 342 329 334 357 346 326 332 339 334 345 17 43 88 109 83 12 281 248 252 251 248 246 241 239 230 220 219 219 229 244 243 240 244 241 230 226 232 241 232 227 230 230 228
335 330 329 319 324 324 320 338 349 349 353 6 42 84 84 56 3 317 289 260 259 263 264 257 245 238 231 227 219 231 253 254 249 249 247 238 231 225 228 229 239 246 237 218
345 338 319 326 324 325 331 339 342 345 336 332 69 77 73 42 323 298 293 285 270 269 272 267 256 253 239 227 223 234 248 252 254 257 255 245 239 238 233 220 218 227 229 214
346 344 332 327 322 328 330 332 327 332 347 7 44 101 86 293 290 285 283 284 282 277 276 275 266 266 253 238 234 243 251 251 255 263 261 253 247 249 246 238 226 208 182 178
332 332 330 325 325 328 328 327 319 319 317 319 320 251 233 271 288 303 312 314 310 293 292 288 283 277 260 254 255 244 241 246 256 262 260 250 246 249 250 246 237 205 194 171
326 328 325 322 321 320 322 321 314 305 303 297 299 287 252 257 279 285 293 304 309 301 297 299 293 286 268 264 269 259 250 239 240 253 257 262 261 252 251 245 235 222 198 170
326 317 312 312 313 315 319 316 315 326 329 310 296 298 293 273 262 256 257 268 283 291 296 305 312 300 283 273 272 271 265 256 242 244 248 259 286 289 272 252 249 231 195 166
324 316 315 316 313 313 312 315 324 327 330 322 311 304 281 272 261 247 246 264 271 272 286 310 312 297 287 277 274 259 262 258 242 239 229 236 251 258 265 259 259 262 243 157
325 322 321 318 319 318 316 318 321 317 316 313 312 303 300 300 293 280 278 274 269 277 294 311 300 288 285 289 282 265 258 256 244 238 245 234 242 245 258 262 272 293 306 282
331 329 327 326 326 323 317 317 313 308 312 314 308 300 304 307 307 304 291 279 279 309 291 256 264 276 286 301 278 268 266 264 253 242 258 255 252 248 240 249 267 278 314 298
334 333 333 335 333 328 323 317 310 304 311 305 304 308 313 311 305 296 287 287 281 223 254 262 275 301 308 294 273 272 271 264 256 249 249 260 265 255 234 253 251 268 253 245
330 328 329 328 322 318 320 317 309 312 309 305 307 309 307 312 312 311 298 303 302 255 254 273 278 274 289 281 277 277 274 268 266 260 249 234 254 291 279 266 267 264 272 282
325 325 325 322 322 318 315 314 317 317 307 300 293 301 302 302 306 304 310 335 30 215 269 228 215 239 260 266 272 279 288 294 303 300 316 302 233 221 236 267 271 275 265 264
317 317 320 319 315 312 312 316 319 316 307 299 300 302 296 296 302 315 341 10 38 323 303 263 225 233 256 275 279 287 328 360 358 344 350 346 337 336 308 261 255 268 273 265
311 308 310 307 307 306 302 301 302 307 301 295 299 311 323 323 315 312 315 299 286 291 299 297 280 255 267 284 297 324 0 21 14 2 4 357 355 2 354 347 328 311 311 323
314 318 319 314 313 314 310 306 306 305 301 303 315 321 322 318 310 304 300 285 275 276 278 283 280 274 273 284 331 6 13 12 15 12 4 357 355 355 351 343 341 360 358 2